Location: Al Mulaqqa?ah
(24.1833°N, 32.8833°E)
Time: 13:45:22
(UTC+00:00)

CZ-4 R/B - Pass Details

Date: 26 September 2021
Orbit: 530 x 596 km, 97.8° (Epoch: 24 October)

Event Time Altitude Azimuth Distance (km) Brightness Sun altitude
Rises 16:25:16 0° 153° (SSE) 2,671 4.5 -11.0°
Reaches altitude 10° 16:27:27 10° 146° (SE) 1,777 3.6 -11.5°
Maximum altitude 16:31:03 40° 76° (ENE) 793 1.7 -12.3°
Drops below altitude 10° 16:34:38 10° 6° (N) 1,777 3.9 -13.2°
Sets 16:36:49 0° 359° (N) 2,671 4.9 -13.6°
